Location: Antoign�
(47.0844°N, 0.1131°W)
Time: 07:33:06
(UTC+00:00)

DMSP B5D2-2 - Pass Details

Date: 03 March 2021
Orbit: 789 x 807 km, 98.3° (Epoch: 11 April)

Event Time Altitude Azimuth Distance (km) Brightness Sun altitude
Rises 19:47:06 0° 12° (NNE) 3,312 7.3 -20.8°
Reaches altitude 10° 19:49:27 10° 11° (N) 2,375 6.6 -21.2°
Maximum altitude 19:54:41 76° 287° (WNW) 821 4.2 -22.0°
Drops below altitude 10° 19:59:52 10° 202° (SSW) 2,349 6.6 -22.9°
Sets 20:02:10 0° 201° (SSW) 3,273 7.3 -23.3°
